Kamloops,

3:57 PM PST on February 17, 2018 (GMT -0800)
Kamloops

Weather History for CYKA - February, 2013

Change the Weather History Date:

Sunday, February 3, 2013

  Actual Average Record
Temperature  
Mean Temperature 31 °F -  
Max Temperature 34 °F 39 °F 40 °F (2018)
Min Temperature 28 °F 24 °F 9 °F (2017)
Degree Days  
Heating Degree Days 34    
Moisture  
Dew Point 30 °F    
Average Humidity 86    
Maximum Humidity 93    
Minimum Humidity 78    
Precipitation  
Precipitation 0.00 in 0.02 in - ()
Sea Level Pressure  
Sea Level Pressure 30.19 in    
Wind  
Wind Speed 2 mph ()    
Max Wind Speed 7 mph    
Max Gust Speed -    
Visibility 10.8 miles    
Events      
Averages and records for this station are not official NWS values.
T = Trace of Precipitation, MM = Missing Value Source: Averaged Metar Reports

Daily Weather History Graph

Daily Weather History Graph

Search for Another Location

Airport or City:

Trip Planner

Search our weather history database for the weather conditions in past years. The results will help you decide how hot, cold, wet, or windy it might be!

Date:

Astronomy

Feb. 03, 2013 Rise Set
Actual Time 7:33 AM PST 4:58 PM PST
Civil Twilight 6:58 AM PST 5:33 PM PST
Nautical Twilight 6:19 AM PST 6:12 PM PST
Astronomical Twilight 5:41 AM PST 6:50 PM PST
Moon 1:09 AM PST (2/3) 10:34 AM PST (2/3)
Length of Visible Light 10h 34m
Length of Day
9h 24m
Waning Gibbous, 47% of the Moon is Illuminated
Feb 3
Waning Gibbous
Feb 9
New
Feb 17
First Quarter
Feb 25
Full
Mar 4
Last Quarter

Hourly Weather History & Observations

Time (PST) Temp. Windchill Dew Point Humidity Pressure Visibility Wind Dir Wind Speed Gust Speed Precip Events Conditions
12:00 AM 33.8 °F 29.6 °F 30.2 °F 87% 30.26 in 10.0 mi WSW 4.6 mph - N/A   Overcast
1:00 AM 33.8 °F - 30.2 °F 87% 30.26 in 10.0 mi Calm Calm - N/A   Overcast
2:00 AM 33.8 °F 30.8 °F 30.2 °F 87% 30.26 in 10.0 mi ENE 3.5 mph - N/A   Overcast
3:00 AM 33.8 °F 30.8 °F 30.2 °F 87% 30.26 in 10.0 mi ESE 3.5 mph - N/A   Overcast
4:00 AM 33 °F - 30 °F 86% 30.25 in 10 mi WNW 2.3 mph - -   Overcast
4:00 AM 32.0 °F - 30.2 °F 93% 30.25 in 10.0 mi WNW 2.3 mph - N/A   Overcast
5:00 AM 32.0 °F - 30.2 °F 93% 30.25 in 12.0 mi Calm Calm - N/A   Overcast
6:00 AM 33.8 °F 29.6 °F 28.4 °F 81% 30.24 in 12.0 mi West 4.6 mph - N/A   Overcast
7:00 AM 33.8 °F 27.7 °F 28.4 °F 81% 30.25 in 15.0 mi WSW 6.9 mph - N/A   Overcast
8:00 AM 33.8 °F 28.6 °F 28.4 °F 81% 30.23 in 15.0 mi WSW 5.8 mph - N/A   Overcast
9:00 AM 32.0 °F - 28.4 °F 87% 30.23 in 15.0 mi Calm Calm - N/A   Overcast
10:00 AM 32 °F - 29 °F 86% 30.23 in 10 mi WNW 2.3 mph - -   Overcast
10:00 AM 32.0 °F 28.7 °F 30.2 °F 93% 30.23 in 10.0 mi WNW 3.5 mph - N/A   Overcast
11:00 AM 32.0 °F - 28.4 °F 87% 30.24 in 15.0 mi Calm Calm - N/A   Overcast
12:00 PM 33.8 °F 27.7 °F 30.2 °F 87% 30.22 in 15.0 mi East 6.9 mph - N/A   Overcast
1:00 PM 33.8 °F - 30.2 °F 87% 30.21 in 10.0 mi East 2.3 mph - N/A   Overcast
2:00 PM 33.8 °F 29.6 °F 30.2 °F 87% 30.19 in 8.0 mi East 4.6 mph - N/A   Overcast
2:37 PM - - - N/A% - 8.0 mi East 4.6 mph - N/A   Unknown
2:54 PM - - - N/A% - 8.0 mi Calm Calm - N/A   Overcast
3:00 PM 33.8 °F - 30.2 °F 87% 30.17 in 8.0 mi Calm Calm - N/A   Overcast
4:00 PM 34 °F - 30 °F 78% 30.16 in 7 mi Calm Calm - -   Partly Cloudy
4:00 PM 33.8 °F - 30.2 °F 87% 30.16 in 8.0 mi Calm Calm - N/A   Overcast
5:00 PM 33.8 °F - 30.2 °F 87% 30.16 in 8.0 mi WNW 2.3 mph - N/A   Overcast
6:00 PM 33.8 °F - 30.2 °F 87% 30.14 in 10.0 mi Calm Calm - N/A   Overcast
7:00 PM 33.8 °F - 30.2 °F 87% 30.11 in 10.0 mi Calm Calm - N/A   Overcast
8:00 PM 33.8 °F - 30.2 °F 87% 30.11 in 12.0 mi Calm Calm - N/A   Overcast
9:00 PM 33.8 °F - 30.2 °F 87% 30.09 in 12.0 mi WNW 2.3 mph - N/A   Overcast
10:00 PM 33 °F - 30 °F 84% 30.09 in 12 mi West 2.3 mph - -   Overcast
10:00 PM 33.8 °F - 30.2 °F 87% 30.09 in 12.0 mi West 2.3 mph - N/A   Overcast
11:00 PM 33.8 °F - 30.2 °F 87% 30.08 in 12.0 mi Calm Calm - N/A   Overcast